| time (UTC) | temp F | wind direction | speed MPH | gust MPH | rain 1hr in | rain 24hr in | rain mn in | humidity % | barometer mb |
| 20260902023003 | 73 | 318 | 0.0 | 1.0 | 0.00 | 0.00 | 0.00 | 86 | 1015.3 |
| 20260902022004 | 74 | 318 | 1.0 | 1.0 | 0.00 | 0.00 | 0.00 | 85 | 1015.3 |
| 20260902021005 | 74 | 205 | 1.0 | 2.0 | 0.00 | 0.00 | 0.00 | 84 | 1015.3 |
| 20260902020006 | 74 | 273 | 0.0 | 1.0 | 0.00 | 0.00 | 0.00 | 84 | 1015.4 |
| 20260902015007 | 75 | 115 | 2.0 | 3.0 | 0.00 | 0.00 | 0.00 | 83 | 1015.4 |
| 20260902014002 | 75 | 138 | 3.0 | 4.0 | 0.00 | 0.00 | 0.00 | 82 | 1015.5 |
| 20260902013003 | 75 | 183 | 3.0 | 4.0 | 0.00 | 0.00 | 0.00 | 82 | 1015.4 |
| 20260902005002 | 77 | 250 | 1.0 | 1.0 | 0.00 | 0.00 | 0.00 | 81 | 1015.4 |
| 20260902003003 | 78 | 138 | 3.0 | 4.0 | 0.00 | 0.00 | 0.00 | 80 | 1015.6 |
| 20260902002004 | 78 | 205 | 4.0 | 4.0 | 0.00 | 0.00 | 0.00 | 80 | 1015.4 |
| 20260902001005 | 78 | 295 | 3.0 | 4.0 | 0.00 | 0.00 | 0.00 | 79 | 1015.2 |
| 20260902000005 | 78 | 228 | 0.0 | 1.0 | 0.00 | 0.00 | 0.00 | 78 | 1015.2 |
| 20260901234006 | 79 | 273 | 2.0 | 5.0 | 0.00 | 0.00 | 0.00 | 77 | 1015.3 |
| 20260901233007 | 79 | 273 | 4.0 | 9.0 | 0.00 | 0.00 | 0.00 | 77 | 1015.3 |
| 20260901231007 | 82 | 273 | 4.0 | 7.0 | 0.00 | 0.00 | 0.00 | 73 | 1015.0 |
| 20260901230002 | 82 | 228 | 1.0 | 3.0 | 0.00 | 0.00 | 0.00 | 71 | 1014.6 |
| 20260901225003 | 83 | 273 | 2.0 | 4.0 | 0.00 | 0.00 | 0.00 | 70 | 1014.2 |
| 20260901224004 | 83 | 340 | 2.0 | 4.0 | 0.00 | 0.00 | 0.00 | 70 | 1014.4 |
| 20260901223006 | 83 | 318 | 3.0 | 7.0 | 0.00 | 0.00 | 0.00 | 69 | 1014.6 |
| 20260901222007 | 83 | 25 | 2.0 | 6.0 | 0.00 | 0.00 | 0.00 | 69 | 1014.6 |
| 20260901221007 | 84 | 273 | 3.0 | 7.0 | 0.00 | 0.00 | 0.00 | 67 | 1014.7 |
| 20260901220002 | 85 | 3 | 2.0 | 4.0 | 0.00 | 0.00 | 0.00 | 67 | 1014.7 |
| 20260901215002 | 85 | 250 | 2.0 | 6.0 | 0.00 | 0.00 | 0.00 | 65 | 1014.8 |
| 20260901214003 | 85 | 183 | 4.0 | 9.0 | 0.00 | 0.00 | 0.00 | 65 | 1014.8 |
| 20260901213004 | 86 | 318 | 3.0 | 6.0 | 0.00 | 0.00 | 0.00 | 64 | 1014.9 |
| 20260901212005 | 86 | 250 | 4.0 | 9.0 | 0.00 | 0.00 | 0.00 | 64 | 1014.7 |
| 20260901205005 | 87 | 295 | 4.0 | 8.0 | 0.00 | 0.00 | 0.00 | 65 | 1014.5 |
| 20260901204006 | 86 | 25 | 2.0 | 6.0 | 0.00 | 0.00 | 0.00 | 67 | 1014.6 |
| 20260901203007 | 87 | 250 | 2.0 | 10.0 | 0.00 | 0.00 | 0.00 | 65 | 1014.8 |
| 20260901201007 | 88 | 115 | 4.0 | 7.0 | 0.00 | 0.00 | 0.00 | 62 | 1014.6 |
| 20260901200001 | 89 | 273 | 1.0 | 3.0 | 0.00 | 0.00 | 0.00 | 62 | 1014.5 |
| 20260901195003 | 88 | 340 | 6.0 | 11.0 | 0.00 | 0.00 | 0.00 | 60 | 1014.5 |
| 20260901194004 | 88 | 250 | 8.0 | 15.0 | 0.00 | 0.00 | 0.00 | 60 | 1014.6 |
| 20260901193004 | 88 | 318 | 6.0 | 11.0 | 0.00 | 0.00 | 0.00 | 60 | 1014.6 |
| 20260901192005 | 88 | 250 | 6.0 | 9.0 | 0.00 | 0.00 | 0.00 | 62 | 1014.5 |
| 20260901191006 | 88 | 295 | 5.0 | 12.0 | 0.00 | 0.00 | 0.00 | 61 | 1014.6 |
| 20260901190005 | 89 | 273 | 2.0 | 4.0 | 0.00 | 0.00 | 0.00 | 61 | 1014.6 |
| 20260901184005 | 88 | 273 | 5.0 | 11.0 | 0.00 | 0.00 | 0.00 | 60 | 1014.7 |
| 20260901183006 | 89 | 250 | 5.0 | 9.0 | 0.00 | 0.00 | 0.00 | 60 | 1014.7 |
| 20260901182006 | 88 | 228 | 4.0 | 9.0 | 0.00 | 0.00 | 0.00 | 62 | 1014.7 |
| 20260901181007 | 87 | 228 | 7.0 | 14.0 | 0.00 | 0.00 | 0.00 | 61 | 1014.7 |
| 20260901180007 | 88 | 228 | 4.0 | 9.0 | 0.00 | 0.00 | 0.00 | 62 | 1014.7 |
| 20260901175008 | 88 | 250 | 11.0 | 16.0 | 0.00 | 0.00 | 0.00 | 63 | 1014.9 |
| 20260901174002 | 88 | 273 | 10.0 | 16.0 | 0.00 | 0.00 | 0.00 | 62 | 1014.7 |
| 20260901173002 | 87 | 250 | 10.0 | 19.0 | 0.00 | 0.00 | 0.00 | 64 | 1014.6 |
| 20260901172003 | 87 | 228 | 2.0 | 4.0 | 0.00 | 0.00 | 0.00 | 66 | 1014.7 |
| 20260901170002 | 84 | 228 | 11.0 | 15.0 | 0.00 | 0.00 | 0.00 | 67 | 1014.8 |
| 20260901165004 | 85 | 273 | 4.0 | 7.0 | 0.00 | 0.00 | 0.00 | 68 | 1014.9 |
| 20260901164004 | 85 | 250 | 7.0 | 10.0 | 0.00 | 0.00 | 0.00 | 69 | 1014.9 |
| 20260901163005 | 84 | 273 | 11.0 | 17.0 | 0.00 | 0.00 | 0.00 | 69 | 1014.9 |
| 20260901162006 | 85 | 228 | 11.0 | 16.0 | 0.00 | 0.00 | 0.00 | 69 | 1014.8 |
| 20260901160006 | 84 | 340 | 2.0 | 5.0 | 0.00 | 0.00 | 0.00 | 70 | 1014.7 |
| 20260901155007 | 84 | 273 | 2.0 | 6.0 | 0.00 | 0.00 | 0.00 | 71 | 1014.9 |
| 20260901154008 | 83 | 273 | 4.0 | 7.0 | 0.00 | 0.00 | 0.00 | 73 | 1014.9 |
| 20260901153003 | 83 | 228 | 1.0 | 3.0 | 0.00 | 0.00 | 0.00 | 75 | 1014.9 |
| 20260901152004 | 82 | 318 | 2.0 | 6.0 | 0.00 | 0.00 | 0.00 | 75 | 1014.8 |
| 20260901151005 | 82 | 273 | 2.0 | 4.0 | 0.00 | 0.00 | 0.00 | 76 | 1014.9 |
| 20260901150006 | 82 | 250 | 7.0 | 11.0 | 0.00 | 0.00 | 0.00 | 75 | 1014.8 |
| 20260901145007 | 80 | 250 | 5.0 | 9.0 | 0.00 | 0.00 | 0.00 | 78 | 1014.9 |
| 20260901144002 | 80 | 273 | 2.0 | 5.0 | 0.00 | 0.00 | 0.00 | 79 | 1014.9 |
| 20260901142002 | 79 | 250 | 4.0 | 7.0 | 0.00 | 0.00 | 0.00 | 79 | 1015.0 |
| 20260901141003 | 79 | 228 | 4.0 | 9.0 | 0.00 | 0.00 | 0.00 | 80 | 1015.1 |
| 20260901140004 | 78 | 70 | 2.0 | 6.0 | 0.00 | 0.00 | 0.00 | 81 | 1015.1 |
| 20260901135004 | 77 | 273 | 6.0 | 12.0 | 0.00 | 0.00 | 0.00 | 82 | 1015.0 |
| 20260901134005 | 77 | 273 | 2.0 | 6.0 | 0.00 | 0.00 | 0.00 | 83 | 1015.2 |
| 20260901133005 | 77 | 250 | 4.0 | 7.0 | 0.00 | 0.00 | 0.00 | 83 | 1015.1 |
| 20260901132006 | 77 | 250 | 6.0 | 9.0 | 0.00 | 0.00 | 0.00 | 83 | 1015.2 |
| 20260901131002 | 76 | 250 | 2.0 | 4.0 | 0.00 | 0.00 | 0.00 | 84 | 1015.2 |
| 20260901130002 | 76 | 250 | 3.0 | 7.0 | 0.00 | 0.00 | 0.00 | 84 | 1015.4 |
| 20260901124002 | 75 | 250 | 4.0 | 9.0 | 0.00 | 0.00 | 0.00 | 85 | 1015.4 |
| 20260901122002 | 75 | 273 | 3.0 | 5.0 | 0.00 | 0.01 | 0.00 | 85 | 1015.4 |
| 20260901120002 | 74 | 250 | 4.0 | 6.0 | 0.00 | 0.05 | 0.00 | 86 | 1015.2 |
| 20260901115003 | 74 | 228 | 2.0 | 4.0 | 0.00 | 0.06 | 0.00 | 86 | 1015.1 |
| 20260901114003 | 74 | 250 | 1.0 | 3.0 | 0.00 | 0.06 | 0.00 | 85 | 1015.1 |
| 20260901113004 | 74 | 205 | 1.0 | 4.0 | 0.00 | 0.06 | 0.00 | 85 | 1015.1 |
| 20260901112005 | 74 | 228 | 2.0 | 4.0 | 0.00 | 0.06 | 0.00 | 84 | 1014.9 |
| 20260901111005 | 74 | 228 | 6.0 | 9.0 | 0.00 | 0.06 | 0.00 | 84 | 1014.9 |
| 20260901110006 | 74 | 250 | 6.0 | 11.0 | 0.00 | 0.07 | 0.00 | 83 | 1014.8 |
| 20260901103005 | 75 | 205 | 6.0 | 11.0 | 0.00 | 0.15 | 0.00 | 82 | 1014.5 |
| 20260901102005 | 75 | 205 | 6.0 | 10.0 | 0.00 | 0.16 | 0.00 | 81 | 1014.5 |
| 20260901101006 | 75 | 228 | 9.0 | 12.0 | 0.00 | 0.17 | 0.00 | 81 | 1014.4 |
| 20260901100007 | 75 | 205 | 8.0 | 14.0 | 0.00 | 0.17 | 0.00 | 80 | 1014.4 |
| 20260901095001 | 75 | 228 | 9.0 | 14.0 | 0.00 | 0.17 | 0.00 | 80 | 1014.5 |
| 20260901094002 | 75 | 205 | 7.0 | 11.0 | 0.00 | 0.17 | 0.00 | 80 | 1014.4 |
| 20260901093003 | 75 | 250 | 7.0 | 11.0 | 0.00 | 0.17 | 0.00 | 80 | 1014.5 |
| 20260901092002 | 75 | 228 | 10.0 | 12.0 | 0.00 | 0.18 | 0.00 | 80 | 1014.5 |
| 20260901090006 | 75 | 228 | 8.0 | 13.0 | 0.00 | 0.18 | 0.00 | 82 | 1014.5 |
| 20260901085006 | 74 | 228 | 5.0 | 11.0 | 0.00 | 0.18 | 0.00 | 86 | 1014.5 |
| 20260901084006 | 73 | 228 | 5.0 | 9.0 | 0.00 | 0.18 | 0.00 | 91 | 1014.5 |
| 20260901083001 | 71 | 228 | 4.0 | 7.0 | 0.00 | 0.18 | 0.00 | 96 | 1014.6 |
| 20260901082002 | 70 | 250 | 3.0 | 4.0 | 0.00 | 0.18 | 0.00 | 97 | 1014.8 |
| 20260901081002 | 70 | 228 | 1.0 | 3.0 | 0.00 | 0.18 | 0.00 | 98 | 1014.7 |
| 20260901080006 | 70 | 250 | 1.0 | 2.0 | 0.00 | 0.18 | 0.00 | 98 | 1014.6 |
| 20260901075001 | 70 | 340 | 1.0 | 1.0 | 0.00 | 0.19 | 0.00 | 98 | 1014.8 |
| 20260901072005 | 69 | 340 | 0.0 | 1.0 | 0.00 | 0.20 | 0.00 | 97 | 1015.0 |
| 20260901071005 | 70 | 93 | 1.0 | 2.0 | 0.00 | 0.21 | 0.00 | 97 | 1015.1 |
| 20260901070004 | 69 | 48 | 2.0 | 3.0 | 0.00 | 0.21 | 0.00 | 97 | 1015.2 |
| 20260901065004 | 69 | 3 | 1.0 | 2.0 | 0.00 | 0.21 | 0.00 | 97 | 1015.4 |
| 20260901064004 | 69 | 93 | 1.0 | 1.0 | 0.00 | 0.21 | 0.00 | 97 | 1015.4 |
| 20260901063004 | 69 | 70 | 1.0 | 2.0 | 0.00 | 0.21 | 0.00 | 97 | 1015.4 |
| 20260901062005 | 70 | 183 | 0.0 | 1.0 | 0.00 | 0.21 | 0.00 | 97 | 1015.5 |
| 20260901061006 | 70 | 183 | 0.0 | 0.0 | 0.00 | 0.21 | 0.00 | 97 | 1015.6 |
| 20260901055007 | 70 | 205 | 0.0 | 1.0 | 0.00 | 0.22 | 0.00 | 97 | 1015.7 |
| 20260901054002 | 70 | 250 | 0.0 | 1.0 | 0.00 | 0.22 | 0.00 | 97 | 1016.0 |
| 20260901053002 | 70 | 250 | 1.0 | 1.0 | 0.00 | 0.22 | 0.00 | 97 | 1016.1 |
| 20260901052003 | 70 | 228 | 0.0 | 0.0 | 0.00 | 0.22 | 0.00 | 97 | 1016.1 |
| 20260901051011 | 70 | 160 | 1.0 | 1.0 | 0.00 | 0.23 | 0.00 | 97 | 1016.1 |
| 20260901050004 | 70 | 250 | 0.0 | 1.0 | 0.00 | 0.23 | 0.00 | 97 | 1016.2 |
| 20260901045005 | 70 | 250 | 1.0 | 2.0 | 0.00 | 0.24 | 0.00 | 97 | 1016.3 |
| 20260901044006 | 70 | 70 | 1.0 | 1.0 | 0.00 | 0.24 | 0.00 | 96 | 1016.0 |
| 20260901043006 | 70 | 138 | 2.0 | 3.0 | 0.00 | 0.25 | 0.00 | 96 | 1016.1 |
| 20260901042001 | 70 | 160 | 1.0 | 1.0 | 0.00 | 0.26 | 0.00 | 96 | 1016.2 |
| 20260901041002 | 70 | 273 | 1.0 | 2.0 | 0.00 | 0.27 | 0.00 | 96 | 1016.4 |
| 20260901040007 | 70 | 115 | 1.0 | 1.0 | 0.00 | 0.29 | 0.00 | 96 | 1016.3 |
| 20260901035001 | 70 | 138 | 1.0 | 1.0 | 0.00 | 0.31 | 0.29 | 96 | 1016.3 |
| 20260901034002 | 71 | 160 | 1.0 | 1.0 | 0.00 | 0.33 | 0.29 | 96 | 1016.2 |
| 20260901033004 | 70 | 318 | 2.0 | 3.0 | 0.00 | 0.33 | 0.29 | 96 | 1016.2 |
| 20260901031004 | 70 | 25 | 1.0 | 2.0 | 0.00 | 0.33 | 0.29 | 95 | 1016.1 |
| 20260901030005 | 70 | 3 | 1.0 | 1.0 | 0.00 | 0.34 | 0.29 | 94 | 1016.1 |